Voltar ao catálogo

FENGYUN 1C DEB

LostPO
NORAD 32329·DEBRIS·🇨🇳 China

Lançado May 10, 1999 de Taiyuan Satellite Launch Center

Loading…

Próximas Passagens (próximas 24 horas)

TLE

ObsoletoSource: Space-Track

Época: Aug 6, 2024, 12:14 UTC

1 32329U 99025CXW 24219.51038080  .00010021  00000-0  38951-2 0  9999
2 32329  99.9338 320.0680 0048623 229.7932 129.8986 14.29411623508928

Acompanhe FENGYUN 1C DEB em tempo real com AllMySat

Download on the App Store